Weather History for Afton Municipal Airport, WY

Change the Weather History Date:

Sunday, December 29, 2013

  Actual Average Record
Temperature  
Mean Temperature 0 °F -  
Max Temperature 14 °F 24 °F 14 °F (2013)
Min Temperature -13 °F 0 °F -13 °F (2013)
Degree Days  
Heating Degree Days 66    
Moisture  
Dew Point -2 °F    
Average Humidity 82    
Maximum Humidity 92    
Minimum Humidity 73    
Precipitation  
Precipitation 0.00 in - - ()
Sea Level Pressure  
Sea Level Pressure 30.26 in    
Wind  
Wind Speed 1 mph (WSW)    
Max Wind Speed 7 mph    
Max Gust Speed -    
Visibility 10 miles    
Events      
Averages and records for this station are not official NWS values.
T = Trace of Precipitation, MM = Missing Value Source: NWS Daily Summary

Daily Weather History Graph

Daily Weather History Graph

Search for Another Location

Airport:

Trip Planner

Search our weather history database for the weather conditions in past years. The results will help you decide how hot, cold, wet, or windy it might be!

Date:

Astronomy

Dec. 29, 2013 Rise Set
Actual Time 7:53 AM MST 4:58 PM MST
Civil Twilight 7:21 AM MST 5:30 PM MST
Nautical Twilight 6:46 AM MST 6:06 PM MST
Astronomical Twilight 6:11 AM MST 6:40 PM MST
Moon 4:39 AM MST (12/29) 2:41 PM MST (12/29)
Length of Visible Light 10h 08m
Length of Day
9h 04m
Waning Crescent, 10% of the Moon is Illuminated
Dec 29
Waning Crescent
Jan 1
New
Jan 7
First Quarter
Jan 15
Full
Jan 23
Last Quarter

Hourly Weather History & Observations

Time (MST) Temp. Windchill Dew Point Humidity Pressure Visibility Wind Dir Wind Speed Gust Speed Precip Events Conditions
12:15 AM 5.0 °F - 1.4 °F 85% 30.25 in 7.0 mi Calm Calm - N/A   Clear
12:35 AM 5.0 °F - 1.4 °F 85% 30.25 in 10.0 mi Calm Calm - N/A   Clear
12:55 AM 3.2 °F - -0.4 °F 85% 30.25 in 7.0 mi Calm Calm - N/A   Clear
1:15 AM 1.4 °F - -0.4 °F 92% 30.25 in 7.0 mi Calm Calm - N/A   Clear
1:35 AM 1.4 °F - -2.2 °F 85% 30.25 in 5.0 mi Calm Calm - N/A   Clear
1:55 AM 1.4 °F - -0.4 °F 92% 30.26 in 1.0 mi Calm Calm - N/A   Mostly Cloudy
2:15 AM -0.4 °F - -5.8 °F 78% 30.27 in 7.0 mi Calm Calm - N/A   Scattered Clouds
2:35 AM -0.4 °F - -5.8 °F 78% 30.28 in 10.0 mi Calm Calm - N/A   Clear
2:55 AM -2.2 °F - -5.8 °F 85% 30.28 in 10.0 mi Calm Calm - N/A   Clear
3:15 AM -2.2 °F - -5.8 °F 85% 30.28 in 10.0 mi Calm Calm - N/A   Clear
3:35 AM -2.2 °F - -5.8 °F 85% 30.28 in 10.0 mi Calm Calm - N/A   Clear
3:55 AM -4.0 °F - -7.6 °F 85% 30.29 in 10.0 mi Calm Calm - N/A   Clear
4:15 AM -0.4 °F - -5.8 °F 78% 30.30 in 10.0 mi Calm Calm - N/A   Clear
4:35 AM -5.8 °F - -9.4 °F 84% 30.29 in 10.0 mi Calm Calm - N/A   Clear
4:55 AM -5.8 °F - -9.4 °F 84% 30.28 in 10.0 mi Calm Calm - N/A   Clear
5:15 AM -7.6 °F - -13.0 °F 77% 30.28 in 10.0 mi Calm Calm - N/A   Scattered Clouds
5:35 AM -5.8 °F - -9.4 °F 84% 30.27 in 10.0 mi Calm Calm - N/A   Scattered Clouds
5:55 AM -4.0 °F - -9.4 °F 78% 30.28 in 10.0 mi Calm Calm - N/A   Clear
6:15 AM -5.8 °F - -9.4 °F 84% 30.29 in 10.0 mi Calm Calm - N/A   Clear
6:35 AM -7.6 °F - -13.0 °F 77% 30.29 in 10.0 mi Calm Calm - N/A   Clear
6:55 AM -7.6 °F - -13.0 °F 77% 30.30 in 10.0 mi Calm Calm - N/A   Clear
7:15 AM -5.8 °F - -9.4 °F 84% 30.30 in 10.0 mi Calm Calm - N/A   Clear
7:35 AM -7.6 °F - -13.0 °F 77% 30.29 in 10.0 mi Calm Calm - N/A   Clear
7:55 AM -13.0 °F - -16.6 °F 84% 30.30 in 10.0 mi North - - N/A   Clear
8:15 AM -7.6 °F - -13.0 °F 77% 30.31 in 10.0 mi Calm Calm - N/A   Clear
8:35 AM -7.6 °F - -13.0 °F 77% 30.32 in 10.0 mi Calm Calm - N/A   Clear
8:55 AM -13.0 °F - -18.4 °F 77% 30.33 in 10.0 mi Calm Calm - N/A   Clear
9:15 AM -7.6 °F - -13.0 °F 77% 30.31 in 10.0 mi Calm Calm - N/A   Clear
9:35 AM -4.0 °F - -7.6 °F 85% 30.30 in 10.0 mi Calm Calm - N/A   Clear
9:55 AM -4.0 °F -14.6 °F -7.6 °F 85% 30.30 in 10.0 mi WNW 4.6 mph - N/A   Clear
10:15 AM -2.2 °F - -7.6 °F 78% 30.30 in 10.0 mi Calm Calm - N/A   Clear
10:35 AM -0.4 °F - -4.0 °F 85% 30.30 in 7.0 mi Calm Calm - N/A   Clear
10:55 AM 1.4 °F - -4.0 °F 78% 30.30 in 10.0 mi Calm Calm - N/A   Clear
11:15 AM 1.4 °F - -4.0 °F 78% 30.30 in 10.0 mi Calm Calm - N/A   Clear
11:35 AM 1.4 °F - -4.0 °F 78% 30.29 in 10.0 mi Calm Calm - N/A   Clear
11:55 AM 5.0 °F - 1.4 °F 85% 30.29 in 10.0 mi Calm Calm - N/A   Clear
12:15 PM 8.6 °F 2.0 °F 3.2 °F 79% 30.28 in 10.0 mi South 3.5 mph - N/A   Clear
12:35 PM 8.6 °F - 3.2 °F 79% 30.27 in 10.0 mi Calm Calm - N/A   Clear
12:55 PM 10.4 °F - 5.0 °F 79% 30.26 in 10.0 mi Calm Calm - N/A   Clear
1:15 PM 10.4 °F - 6.8 °F 85% 30.25 in 10.0 mi Calm Calm - N/A   Clear
1:35 PM 10.4 °F - 6.8 °F 85% 30.25 in 10.0 mi Calm Calm - N/A   Clear
1:55 PM 10.4 °F - 6.8 °F 85% 30.24 in 10.0 mi Calm Calm - N/A   Clear
2:16 PM 10.4 °F - 5.0 °F 79% 30.24 in 10.0 mi Calm Calm - N/A   Clear
2:35 PM 10.4 °F - 6.8 °F 85% 30.23 in 10.0 mi Calm Calm - N/A   Clear
2:55 PM 10.4 °F - 5.0 °F 79% 30.24 in 10.0 mi Calm Calm - N/A   Clear
3:15 PM 10.4 °F - 5.0 °F 79% 30.23 in 10.0 mi Calm Calm - N/A   Clear
3:35 PM 12.2 °F 6.1 °F 5.0 °F 73% 30.22 in 10.0 mi SSE 3.5 mph - N/A   Clear
3:55 PM 12.2 °F - 5.0 °F 73% 30.22 in 10.0 mi Calm Calm - N/A   Clear
4:15 PM 10.4 °F 4.0 °F 3.2 °F 73% 30.22 in 10.0 mi WNW 3.5 mph - N/A   Scattered Clouds
4:35 PM 8.6 °F - 3.2 °F 79% 30.24 in 10.0 mi Calm Calm - N/A   Clear
4:55 PM 5.0 °F -2.1 °F 1.4 °F 85% 30.22 in 10.0 mi West 3.5 mph - N/A   Scattered Clouds
5:15 PM 5.0 °F - -0.4 °F 78% 30.22 in 10.0 mi Calm Calm - N/A   Clear
5:35 PM 3.2 °F - -0.4 °F 85% 30.21 in 10.0 mi Calm Calm - N/A   Clear
5:55 PM 3.2 °F - -0.4 °F 85% 30.21 in 10.0 mi Calm Calm - N/A   Clear
6:18 PM -0.4 °F -10.4 °F -4.0 °F 85% 30.21 in 10.0 mi NW 4.6 mph - N/A   Clear
6:35 PM 1.4 °F - -4.0 °F 78% 30.21 in 7.0 mi Calm Calm - N/A   Scattered Clouds
6:55 PM 1.4 °F - -2.2 °F 85% 30.21 in 10.0 mi Calm Calm - N/A   Scattered Clouds
7:15 PM 1.4 °F -6.2 °F -4.0 °F 78% 30.21 in 10.0 mi SE 3.5 mph - N/A   Clear
7:35 PM 5.0 °F - 1.4 °F 85% 30.22 in 10.0 mi Calm Calm - N/A   Scattered Clouds
7:55 PM 5.0 °F -4.1 °F -0.4 °F 78% 30.22 in 10.0 mi NW 4.6 mph - N/A   Mostly Cloudy
8:15 PM 5.0 °F -2.1 °F 1.4 °F 85% 30.22 in 10.0 mi WNW 3.5 mph - N/A   Overcast
8:35 PM 8.6 °F - 5.0 °F 85% 30.22 in 10.0 mi Calm Calm - N/A   Overcast
8:55 PM 8.6 °F - 5.0 °F 85% 30.22 in 10.0 mi Calm Calm - N/A   Overcast
9:15 PM 8.6 °F - 5.0 °F 85% 30.21 in 10.0 mi Calm Calm - N/A   Overcast
9:35 PM 10.4 °F 2.2 °F 5.0 °F 79% 30.20 in 10.0 mi South 4.6 mph - N/A   Overcast
9:55 PM 8.6 °F 0.1 °F 5.0 °F 85% 30.22 in 10.0 mi NW 4.6 mph - N/A   Overcast
10:15 PM 10.4 °F 4.0 °F 5.0 °F 79% 30.24 in 10.0 mi North 3.5 mph - N/A   Overcast
10:35 PM 10.4 °F - 6.8 °F 85% 30.24 in 10.0 mi Calm Calm - N/A   Overcast
10:55 PM 12.2 °F 4.3 °F 6.8 °F 79% 30.24 in 7.0 mi South 4.6 mph - N/A   Mostly Cloudy
11:15 PM 12.2 °F 1.7 °F 6.8 °F 79% 30.24 in 10.0 mi SSE 6.9 mph - N/A   Mostly Cloudy
11:35 PM 12.2 °F 4.3 °F 8.6 °F 85% 30.24 in 10.0 mi South 4.6 mph - N/A   Mostly Cloudy
11:55 PM 14.0 °F - 10.4 °F 86% 30.24 in 10.0 mi Calm Calm - N/A   Mostly Cloudy